STARLINK-2118 (47396 NORAD) Tracking and Keplerian Element Data

This shows tracking and keplerian element data for the satellite.

Feedback or suggestion? Click here.




ElementValue
Catalog47396
NameSTARLINK-2118
Epoch Orbit1373
Epoch Day102.25003472
Epoch Year2021
RAAN170.3267
Inclination53.0536
Eccentricity0.000381
Argument of Perigee5.5771
Mean Anonmoly223.0681
Mean Motion15.62792657
Decay Rate-0.00023109
L11 47396U 21005AZ 21102.25003472 -.00023109 00000-0 -24675-3 0 9990
L22 47396 53.0536 170.3267 0003810 5.5771 223.0681 15.62792657 13732

Live tracking and technical data element details for STARLINK-2118 (NORAD 47396). STARLINK-2118 can be tracked NOW for your location showing map with azimuth and elevation plus other details from your city location.

Track the satellite on the map from your city or location and see movement details for azimuth, elevation, latitude, longitude, range, height, and movement on the map or in text.







IsCatalogInMostPopularTable: catalog: 47396, numindb: 18
Update: records affected: 1



GetName: 47396 STARLINK-2118

Hit Count: updated at: Tue, 13 Apr 2021 04:00:59 GMT